Location: Pescara
(42.4670°N, 14.2170°E)
Time: 16:50:22
(UTC+02:00)

ISS - Pass Details

Date: 18 May 2021
Orbit: 417 x 422 km, 51.6° (Epoch: 18 June)

Event Time Altitude Azimuth Distance (km) Brightness Sun altitude
Rises 21:14:56 0° 246° (WSW) 2,353 0.5 -9.1°
Reaches altitude 10° 21:17:03 10° 252° (WSW) 1,493 -0.5 -9.4°
Maximum altitude 21:20:20 54° 330° (NNW) 516 -2.9 -9.9°
Drops below altitude 10° 21:23:40 10° 49° (NE) 1,503 -1.0 -10.4°
Sets 21:25:48 0° 54° (NE) 2,371 -0.1 -10.7°
